When you browse on this site, cookies collect data to enhance your experience and personalize the content and advertising you see.
Visit our Privacy Policy to learn more. By continuing to use the site, you agree to this use of cookies and data.
  • In Hungary
  • List of Countries
  • For 7 days
  • Water Temperature
  • Weather Map
  • News
  • Weather Widgets
  • user-avatar
    Login

    Hourly Weather Aypolovo

    Today, 19 January, Sunday

    Time Temperature Precipitation Wind Pressure Humidity
    00:00 -19°C° 0.3 mm 5 mps 749 mmHg 89%
    01:00 -18°C° 0.3 mm 4 mps 748 mmHg 92%
    02:00 -18°C° 0.3 mm 4 mps 747 mmHg 94%
    03:00 -17°C° 0.1 mm 3 mps 747 mmHg 94%
    04:00 -17°C° 0.1 mm 3 mps 747 mmHg 94%
    05:00 -16°C° 0 mm 3 mps 747 mmHg 95%
    06:00 -16°C° 0 mm 3 mps 747 mmHg 94%
    07:00 -18°C° 0 mm 4 mps 747 mmHg 93%
    08:00 -18°C° 0 mm 4 mps 747 mmHg 92%
    09:00 -18°C° 0 mm 4 mps 748 mmHg 92%
    10:00 -19°C° 0 mm 4 mps 749 mmHg 91%
    11:00 -20°C° 0 mm 5 mps 749 mmHg 90%
    12:00 -20°C° 0 mm 5 mps 750 mmHg 90%
    13:00 -21°C° 0 mm 5 mps 750 mmHg 89%
    14:00 -21°C° 0 mm 5 mps 751 mmHg 89%
    15:00 -24°C° 0 mm 5 mps 752 mmHg 90%
    16:00 -24°C° 0 mm 4 mps 753 mmHg 91%
    17:00 -25°C° 0 mm 4 mps 754 mmHg 92%
    18:00 -26°C° 0 mm 4 mps 755 mmHg 93%
    19:00 -26°C° 0 mm 3 mps 755 mmHg 93%
    20:00 -27°C° 0 mm 3 mps 756 mmHg 93%
    21:00 -29°C° 0 mm 3 mps 756 mmHg 93%
    22:00 -28°C° 0 mm 2 mps 757 mmHg 94%
    23:00 -28°C° 0 mm 2 mps 757 mmHg 95%

    Tomorrow, 20 January, Monday

    Time Temperature Precipitation Wind Pressure Humidity
    00:00 -30°C° 0 mm 3 mps 757 mmHg 94%
    01:00 -29°C° 0 mm 3 mps 757 mmHg 93%
    02:00 -29°C° 0 mm 3 mps 757 mmHg 92%
    03:00 -27°C° 0 mm 3 mps 757 mmHg 93%
    04:00 -27°C° 0 mm 3 mps 757 mmHg 93%
    05:00 -26°C° 0 mm 3 mps 757 mmHg 93%
    06:00 -26°C° 0 mm 3 mps 757 mmHg 93%
    07:00 -25°C° 0 mm 3 mps 757 mmHg 93%
    08:00 -25°C° 0 mm 3 mps 757 mmHg 93%
    09:00 -24°C° 0 mm 3 mps 757 mmHg 92%
    10:00 -24°C° 0 mm 3 mps 757 mmHg 92%
    11:00 -23°C° 0 mm 3 mps 757 mmHg 91%
    12:00 -24°C° 0 mm 4 mps 757 mmHg 90%
    13:00 -23°C° 0 mm 4 mps 757 mmHg 89%
    14:00 -23°C° 0 mm 4 mps 757 mmHg 88%
    15:00 -23°C° 0 mm 4 mps 756 mmHg 89%
    16:00 -24°C° 0 mm 4 mps 756 mmHg 89%
    17:00 -24°C° 0 mm 4 mps 756 mmHg 89%
    18:00 -25°C° 0 mm 4 mps 756 mmHg 88%
    19:00 -25°C° 0 mm 4 mps 756 mmHg 88%
    20:00 -25°C° 0 mm 4 mps 756 mmHg 87%
    21:00 -25°C° 0 mm 4 mps 756 mmHg 87%
    22:00 -25°C° 0 mm 4 mps 755 mmHg 86%
    23:00 -25°C° 0 mm 4 mps 755 mmHg 86%

    Day after tomorrow, 21 January, Tuesday

    Time Temperature Precipitation Wind Pressure Humidity
    00:00 -25°C° 0 mm 4 mps 755 mmHg 86%
    01:00 -25°C° 0 mm 3 mps 755 mmHg 86%
    02:00 -25°C° 0 mm 3 mps 755 mmHg 86%
    03:00 -25°C° 0 mm 3 mps 755 mmHg 87%
    04:00 -25°C° 0 mm 3 mps 755 mmHg 88%
    05:00 -24°C° 0 mm 2 mps 755 mmHg 89%
    06:00 -24°C° 0 mm 2 mps 755 mmHg 89%
    07:00 -24°C° 0 mm 2 mps 754 mmHg 90%
    08:00 -25°C° 0 mm 2 mps 754 mmHg 91%
    09:00 -24°C° 0 mm 2 mps 754 mmHg 90%
    10:00 -23°C° 0 mm 2 mps 754 mmHg 89%
    11:00 -21°C° 0 mm 2 mps 755 mmHg 88%
    12:00 -18°C° 0 mm 1 mps 754 mmHg 88%
    13:00 -17°C° 0 mm 1 mps 754 mmHg 89%
    14:00 -17°C° 0 mm 1 mps 754 mmHg 89%
    15:00 -18°C° 0 mm 1 mps 754 mmHg 90%
    16:00 -19°C° 0 mm 1 mps 755 mmHg 91%
    17:00 -20°C° 0 mm 1 mps 755 mmHg 91%
    18:00 -20°C° 0 mm 1 mps 755 mmHg 91%
    19:00 -23°C° 0 mm 2 mps 755 mmHg 90%
    20:00 -24°C° 0 mm 2 mps 755 mmHg 89%
    21:00 -24°C° 0 mm 2 mps 754 mmHg 90%
    22:00 -24°C° 0 mm 2 mps 754 mmHg 92%
    23:00 -24°C° 0 mm 2 mps 754 mmHg 93%

    22 January, Wednesday

    Time Temperature Precipitation Wind Pressure Humidity
    00:00 -24°C° 0 mm 2 mps 754 mmHg 94%
    01:00 -24°C° 0 mm 2 mps 754 mmHg 94%
    02:00 -24°C° 0 mm 2 mps 753 mmHg 95%
    03:00 -24°C° 0 mm 2 mps 753 mmHg 91%
    04:00 -25°C° 0 mm 3 mps 753 mmHg 87%
    05:00 -25°C° 0 mm 3 mps 753 mmHg 83%
    06:00 -25°C° 0 mm 3 mps 752 mmHg 84%
    07:00 -25°C° 0 mm 3 mps 752 mmHg 84%
    08:00 -25°C° 0 mm 3 mps 751 mmHg 85%
    09:00 -24°C° 0 mm 3 mps 751 mmHg 87%
    10:00 -23°C° 0 mm 3 mps 750 mmHg 90%
    11:00 -22°C° 0 mm 3 mps 750 mmHg 92%
    12:00 -23°C° 0 mm 4 mps 749 mmHg 93%
    13:00 -23°C° 0 mm 4 mps 749 mmHg 93%
    14:00 -22°C° 0 mm 4 mps 748 mmHg 94%
    15:00 -22°C° 0 mm 4 mps 748 mmHg 94%
    16:00 -23°C° 0 mm 4 mps 747 mmHg 94%
    17:00 -23°C° 0 mm 4 mps 747 mmHg 95%
    18:00 -22°C° 0 mm 4 mps 746 mmHg 94%
    19:00 -22°C° 0 mm 4 mps 746 mmHg 94%
    20:00 -20°C° 0 mm 4 mps 745 mmHg 94%
    21:00 -19°C° 0 mm 4 mps 745 mmHg 93%
    22:00 -18°C° 0 mm 4 mps 744 mmHg 93%
    23:00 -17°C° 0 mm 4 mps 744 mmHg 92%

    23 January, Thursday

    Time Temperature Precipitation Wind Pressure Humidity
    00:00 -16°C° 0.1 mm 4 mps 743 mmHg 92%
    01:00 -16°C° 0.1 mm 4 mps 743 mmHg 92%
    02:00 -15°C° 0.1 mm 5 mps 743 mmHg 92%
    03:00 -14°C° 0.1 mm 5 mps 742 mmHg 92%
    04:00 -14°C° 0.1 mm 5 mps 742 mmHg 91%
    05:00 -13°C° 0.1 mm 5 mps 741 mmHg 91%
    06:00 -13°C° 0.2 mm 5 mps 741 mmHg 91%
    07:00 -12°C° 0.2 mm 5 mps 741 mmHg 92%
    08:00 -12°C° 0.2 mm 5 mps 740 mmHg 92%
    09:00 -11°C° 0.2 mm 5 mps 740 mmHg 92%
    10:00 -10°C° 0.2 mm 5 mps 740 mmHg 91%
    11:00 -8°C° 0.2 mm 5 mps 739 mmHg 91%
    12:00 -8°C° 0.1 mm 5 mps 739 mmHg 91%
    13:00 -8°C° 0.1 mm 5 mps 739 mmHg 91%
    14:00 -7°C° 0.1 mm 5 mps 738 mmHg 91%
    15:00 -7°C° 0.3 mm 5 mps 738 mmHg 92%
    16:00 -7°C° 0.3 mm 5 mps 738 mmHg 93%
    17:00 -7°C° 0.3 mm 5 mps 738 mmHg 93%
    18:00 -7°C° 0.2 mm 5 mps 738 mmHg 93%
    19:00 -7°C° 0.2 mm 4 mps 738 mmHg 93%
    20:00 -7°C° 0.2 mm 4 mps 738 mmHg 93%
    21:00 -7°C° 0.1 mm 4 mps 738 mmHg 92%
    22:00 -7°C° 0.1 mm 4 mps 738 mmHg 92%
    23:00 -7°C° 0.1 mm 3 mps 738 mmHg 91%

    24 January, Friday

    Time Temperature Precipitation Wind Pressure Humidity
    00:00 -8°C° 0 mm 3 mps 739 mmHg 92%
    01:00 -9°C° 0 mm 4 mps 739 mmHg 92%
    02:00 -10°C° 0 mm 4 mps 740 mmHg 92%
    03:00 -11°C° 0 mm 4 mps 740 mmHg 93%
    04:00 -12°C° 0 mm 3 mps 740 mmHg 93%
    05:00 -13°C° 0 mm 3 mps 741 mmHg 93%
    06:00 -13°C° 0 mm 3 mps 741 mmHg 93%
    07:00 -14°C° 0 mm 3 mps 741 mmHg 93%
    08:00 -14°C° 0 mm 3 mps 741 mmHg 93%
    09:00 -15°C° 0 mm 4 mps 742 mmHg 91%
    10:00 -14°C° 0 mm 4 mps 742 mmHg 90%
    11:00 -12°C° 0 mm 4 mps 742 mmHg 89%
    12:00 -12°C° 0 mm 4 mps 742 mmHg 88%
    13:00 -11°C° 0 mm 4 mps 742 mmHg 88%
    14:00 -10°C° 0 mm 4 mps 742 mmHg 88%
    15:00 -11°C° 0 mm 4 mps 743 mmHg 89%
    16:00 -12°C° 0 mm 3 mps 743 mmHg 91%
    17:00 -13°C° 0 mm 3 mps 743 mmHg 92%
    18:00 -14°C° 0 mm 3 mps 743 mmHg 93%
    19:00 -14°C° 0 mm 3 mps 743 mmHg 94%
    20:00 -15°C° 0 mm 3 mps 743 mmHg 94%
    21:00 -16°C° 0 mm 3 mps 743 mmHg 95%
    22:00 -16°C° 0 mm 2 mps 743 mmHg 95%
    23:00 -17°C° 0 mm 2 mps 743 mmHg 96%
    Show more